This is the latest recevied weather packets stored in our database for station/object KE5AKC. If no packets are shown the sender has not sent any weather packets the latest 10 day(s).
| Time | Temp. | Humidity | Pressure | Rain* | Wind** | Luminosity | Snow |
|---|---|---|---|---|---|---|---|
| 1776954279 | 23.89° C | 83% | 1013.7 hPa | 0 mm | - | 372 W/m² | - |
| 1776953978 | 23.33° C | 85% | 1013.4 hPa | 0 mm | - | 442 W/m² | - |
| 1776953674 | 23.33° C | 86% | 1013.7 hPa | 0 mm | - | 223 W/m² | - |
| 1776953374 | 23.33° C | 87% | 1013.4 hPa | 0 mm | - | 164 W/m² | - |
| 1776953073 | 23.33° C | 87% | 1013.4 hPa | 0 mm | - | 183 W/m² | - |
| 1776952769 | 23.33° C | 88% | 1013.4 hPa | 0 mm | - | 213 W/m² | - |
| 1776952466 | 23.33° C | 88% | 1013.4 hPa | 0 mm | - | 145 W/m² | - |
| 1776952162 | 22.78° C | 90% | 1013.4 hPa | 0 mm | - | 360 W/m² | - |
| 1776951860 | 22.78° C | 90% | 1013.7 hPa | 0 mm | - | 153 W/m² | - |
| 1776951556 | 22.22° C | 91% | 1013.7 hPa | 0 mm | - | 154 W/m² | - |
| 1776951253 | 22.22° C | 91% | 1013.7 hPa | 0 mm | - | 121 W/m² | - |
| 1776950949 | 22.22° C | 91% | 1013.7 hPa | 0 mm | - | 155 W/m² | - |
| 1776950645 | 22.22° C | 91% | 1013.7 hPa | 0 mm | - | 100 W/m² | - |
| 1776950340 | 22.22° C | 90% | 1013.4 hPa | 0 mm | - | 77 W/m² | - |
| 1776950036 | 22.78° C | 89% | 1013.7 hPa | 0 mm | - | 67 W/m² | - |
| 1776949731 | 22.78° C | 88% | 1013.4 hPa | 0 mm | - | 83 W/m² | - |
| 1776949429 | 22.78° C | 89% | 1013.4 hPa | 0 mm | - | 123 W/m² | - |
| 1776949129 | 22.78° C | 90% | 1013.4 hPa | 0 mm | - | 108 W/m² | - |
| 1776948826 | 22.22° C | 90% | 1013.4 hPa | 0 mm | - | 91 W/m² | - |
| 1776948522 | 22.22° C | 91% | 1013.4 hPa | 0 mm | - | 82 W/m² | - |
| 1776948219 | 22.22° C | 92% | 1013.4 hPa | 0 mm | - | 75 W/m² | - |
| 1776947918 | 21.67° C | 93% | 1013.4 hPa | 0 mm | - | 67 W/m² | - |
| 1776947613 | 21.67° C | 94% | 1013 hPa | 0 mm | - | 57 W/m² | - |
| 1776947310 | 21.67° C | 95% | 1013.4 hPa | 0 mm | - | 44 W/m² | - |
| 1776947007 | 21.11° C | 95% | 1012.7 hPa | 0 mm | - | 39 W/m² | - |
* Rain latest hour (hover to see other rain measurements)
** Current wind speed in m/s (hover to see current wind gust speed)